| time (UTC) | temp F | wind direction | speed MPH | gust MPH | rain 1hr in | rain 24hr in | rain mn in | humidity % | barometer mb |
| 20260510074933 | 48 | 323 | 0.0 | 1.0 | 0.00 | 0.00 | 0.00 | 61 | 1013.8 |
| 20260510074033 | 48 | 318 | 0.0 | 1.0 | 0.00 | 0.00 | 0.00 | 62 | 1013.8 |
| 20260510073133 | 48 | 305 | 0.0 | 2.0 | 0.00 | 0.00 | 0.00 | 64 | 1013.7 |
| 20260510072233 | 48 | 285 | 0.0 | 3.0 | 0.00 | 0.00 | 0.00 | 65 | 1013.6 |
| 20260510070434 | 46 | 313 | 0.0 | 2.0 | 0.00 | 0.00 | 0.00 | 72 | 1013.1 |
| 20260510065534 | 46 | 256 | 0.0 | 1.0 | 0.00 | 0.00 | 0.00 | 73 | 1013.0 |
| 20260510063734 | 46 | 256 | 0.0 | 1.0 | 0.00 | 0.00 | 0.00 | 73 | 1012.8 |
| 20260510062833 | 46 | 256 | 0.0 | 1.0 | 0.00 | 0.00 | 0.00 | 72 | 1012.4 |
| 20260510061933 | 46 | 0 | 0.0 | 0.0 | 0.00 | 0.00 | 0.00 | 72 | 1012.4 |
| 20260510061034 | 46 | 0 | 0.0 | 0.0 | 0.00 | 0.00 | 0.00 | 71 | 1012.3 |
| 20260510060133 | 47 | 0 | 0.0 | 0.0 | 0.00 | 0.00 | 0.00 | 71 | 1012.3 |
| 20260510055233 | 47 | 0 | 0.0 | 0.0 | 0.00 | 0.00 | 0.00 | 70 | 1012.3 |
| 20260510054333 | 47 | 0 | 0.0 | 0.0 | 0.00 | 0.00 | 0.00 | 69 | 1012.2 |
| 20260510051633 | 48 | 0 | 0.0 | 0.0 | 0.00 | 0.00 | 0.00 | 65 | 1011.9 |
| 20260510045833 | 49 | 0 | 0.0 | 0.0 | 0.00 | 0.00 | 0.00 | 64 | 1011.5 |
| 20260510044934 | 50 | 0 | 0.0 | 0.0 | 0.00 | 0.00 | 0.00 | 63 | 1011.3 |
| 20260510044033 | 50 | 0 | 0.0 | 0.0 | 0.00 | 0.00 | 0.00 | 62 | 1011.2 |
| 20260510043134 | 51 | 0 | 0.0 | 0.0 | 0.00 | 0.00 | 0.00 | 62 | 1011.0 |
| 20260510042234 | 51 | 0 | 0.0 | 0.0 | 0.00 | 0.00 | 0.00 | 60 | 1010.8 |
| 20260510040434 | 52 | 0 | 0.0 | 0.0 | 0.00 | 0.00 | 0.00 | 57 | 1010.5 |
| 20260510034633 | 53 | 0 | 0.0 | 0.0 | 0.00 | 0.00 | 0.00 | 55 | 1010.4 |
| 20260510033734 | 54 | 0 | 0.0 | 0.0 | 0.00 | 0.00 | 0.00 | 54 | 1010.4 |
| 20260510032834 | 54 | 0 | 0.0 | 0.0 | 0.00 | 0.00 | 0.00 | 54 | 1010.2 |
| 20260510031933 | 55 | 0 | 0.0 | 0.0 | 0.00 | 0.00 | 0.00 | 52 | 1010.2 |
| 20260510031034 | 55 | 256 | 0.0 | 1.0 | 0.00 | 0.00 | 0.00 | 52 | 1010.1 |
| 20260510030133 | 56 | 256 | 0.0 | 1.0 | 0.00 | 0.00 | 0.00 | 50 | 1010.1 |
| 20260510025234 | 56 | 0 | 0.0 | 0.0 | 0.00 | 0.00 | 0.00 | 49 | 1009.9 |
| 20260510024334 | 57 | 0 | 0.0 | 0.0 | 0.00 | 0.00 | 0.00 | 49 | 1009.8 |
| 20260510023434 | 57 | 251 | 0.0 | 1.0 | 0.00 | 0.00 | 0.00 | 48 | 1009.7 |
| 20260510020734 | 59 | 64 | 0.0 | 3.0 | 0.00 | 0.00 | 0.00 | 44 | 1008.8 |
| 20260510015833 | 61 | 101 | 0.0 | 1.0 | 0.00 | 0.00 | 0.00 | 43 | 1008.6 |
| 20260510014934 | 63 | 84 | 0.0 | 2.0 | 0.00 | 0.00 | 0.00 | 41 | 1008.5 |
| 20260510014033 | 64 | 308 | 1.0 | 4.0 | 0.00 | 0.00 | 0.00 | 38 | 1008.0 |
| 20260510012233 | 65 | 317 | 1.0 | 3.0 | 0.00 | 0.00 | 0.00 | 37 | 1007.5 |
| 20260510011333 | 66 | 318 | 1.0 | 5.0 | 0.00 | 0.00 | 0.00 | 37 | 1007.2 |
| 20260510010434 | 66 | 319 | 2.0 | 7.0 | 0.00 | 0.00 | 0.00 | 36 | 1007.0 |
| 20260510005533 | 67 | 328 | 2.0 | 7.0 | 0.00 | 0.00 | 0.00 | 36 | 1006.7 |
| 20260510003734 | 68 | 316 | 2.0 | 10.0 | 0.00 | 0.00 | 0.00 | 34 | 1006.4 |
| 20260510002834 | 68 | 311 | 2.0 | 10.0 | 0.00 | 0.00 | 0.00 | 32 | 1006.2 |
| 20260510001934 | 69 | 314 | 3.0 | 9.0 | 0.00 | 0.00 | 0.00 | 32 | 1005.9 |
| 20260510001033 | 70 | 332 | 2.0 | 11.0 | 0.00 | 0.00 | 0.00 | 32 | 1005.8 |
| 20260510000134 | 70 | 321 | 2.0 | 9.0 | 0.00 | 0.00 | 0.00 | 32 | 1005.6 |
| 20260509235234 | 70 | 323 | 2.0 | 7.0 | 0.00 | 0.00 | 0.00 | 33 | 1005.5 |
| 20260509234334 | 71 | 305 | 2.0 | 8.0 | 0.00 | 0.00 | 0.00 | 31 | 1005.4 |
| 20260509231634 | 72 | 303 | 3.0 | 11.0 | 0.00 | 0.00 | 0.00 | 29 | 1005.1 |
| 20260509230734 | 72 | 270 | 2.0 | 7.0 | 0.00 | 0.00 | 0.00 | 30 | 1005.0 |
| 20260509225834 | 72 | 299 | 2.0 | 8.0 | 0.00 | 0.00 | 0.00 | 28 | 1004.8 |
| 20260509224034 | 73 | 306 | 3.0 | 12.0 | 0.00 | 0.00 | 0.00 | 28 | 1004.6 |
| 20260509223134 | 73 | 279 | 3.0 | 12.0 | 0.00 | 0.00 | 0.00 | 28 | 1004.5 |
| 20260509222233 | 73 | 294 | 3.0 | 10.0 | 0.00 | 0.00 | 0.00 | 29 | 1004.2 |
| 20260509221333 | 74 | 309 | 3.0 | 10.0 | 0.00 | 0.00 | 0.00 | 28 | 1004.2 |
| 20260509220433 | 74 | 321 | 4.0 | 14.0 | 0.00 | 0.00 | 0.00 | 28 | 1004.1 |
| 20260509214633 | 73 | 207 | 3.0 | 11.0 | 0.00 | 0.00 | 0.00 | 28 | 1004.0 |
| 20260509213733 | 74 | 241 | 2.0 | 9.0 | 0.00 | 0.00 | 0.00 | 30 | 1003.9 |
| 20260509212833 | 74 | 287 | 3.0 | 11.0 | 0.00 | 0.00 | 0.00 | 28 | 1003.9 |
| 20260509211934 | 74 | 245 | 3.0 | 9.0 | 0.00 | 0.00 | 0.00 | 28 | 1003.7 |
| 20260509211033 | 75 | 272 | 3.0 | 9.0 | 0.00 | 0.00 | 0.00 | 28 | 1003.7 |
| 20260509205233 | 76 | 207 | 3.0 | 8.0 | 0.00 | 0.00 | 0.00 | 28 | 1003.7 |
| 20260509204333 | 75 | 231 | 4.0 | 15.0 | 0.00 | 0.00 | 0.00 | 29 | 1003.5 |
| 20260509203433 | 75 | 215 | 2.0 | 15.0 | 0.00 | 0.00 | 0.00 | 29 | 1003.6 |
| 20260509202533 | 74 | 242 | 3.0 | 10.0 | 0.00 | 0.00 | 0.00 | 31 | 1003.5 |
| 20260509201633 | 74 | 244 | 2.0 | 9.0 | 0.00 | 0.00 | 0.00 | 30 | 1003.6 |
| 20260509200733 | 74 | 290 | 2.0 | 13.0 | 0.00 | 0.00 | 0.00 | 33 | 1003.7 |
| 20260509195837 | 72 | 277 | 3.0 | 9.0 | 0.00 | 0.00 | 0.00 | 31 | 1003.8 |
| 20260509194933 | 72 | 300 | 3.0 | 12.0 | 0.00 | 0.00 | 0.00 | 31 | 1003.8 |
| 20260509194033 | 72 | 273 | 3.0 | 9.0 | 0.00 | 0.00 | 0.00 | 31 | 1003.8 |
| 20260509193133 | 72 | 262 | 3.0 | 11.0 | 0.00 | 0.00 | 0.00 | 30 | 1003.6 |
| 20260509192233 | 72 | 286 | 2.0 | 7.0 | 0.00 | 0.00 | 0.00 | 31 | 1003.8 |
| 20260509191333 | 73 | 273 | 3.0 | 11.0 | 0.00 | 0.00 | 0.00 | 30 | 1003.9 |
| 20260509190433 | 74 | 242 | 2.0 | 7.0 | 0.00 | 0.00 | 0.00 | 29 | 1003.6 |
| 20260509184633 | 73 | 290 | 2.0 | 6.0 | 0.00 | 0.00 | 0.00 | 31 | 1003.5 |
| 20260509181033 | 73 | 253 | 2.0 | 5.0 | 0.00 | 0.00 | 0.00 | 33 | 1003.6 |
| 20260509180133 | 73 | 257 | 2.0 | 7.0 | 0.00 | 0.00 | 0.00 | 33 | 1003.7 |
| 20260509175233 | 73 | 201 | 2.0 | 8.0 | 0.00 | 0.00 | 0.00 | 31 | 1003.8 |
| 20260509174333 | 73 | 293 | 3.0 | 8.0 | 0.00 | 0.00 | 0.00 | 35 | 1003.7 |
| 20260509173433 | 73 | 296 | 3.0 | 13.0 | 0.00 | 0.00 | 0.00 | 33 | 1003.8 |
| 20260509172533 | 72 | 247 | 2.0 | 8.0 | 0.00 | 0.00 | 0.00 | 35 | 1003.7 |
| 20260509171633 | 71 | 156 | 2.0 | 6.0 | 0.00 | 0.00 | 0.00 | 45 | 1003.7 |
| 20260509165833 | 69 | 165 | 1.0 | 5.0 | 0.00 | 0.00 | 0.00 | 51 | 1003.9 |
| 20260509164032 | 68 | 236 | 1.0 | 4.0 | 0.00 | 0.00 | 0.00 | 56 | 1004.1 |
| 20260509163133 | 67 | 165 | 1.0 | 5.0 | 0.00 | 0.00 | 0.00 | 55 | 1003.8 |
| 20260509162233 | 67 | 254 | 1.0 | 5.0 | 0.00 | 0.00 | 0.00 | 57 | 1003.9 |
| 20260509161333 | 67 | 197 | 1.0 | 4.0 | 0.00 | 0.00 | 0.00 | 60 | 1003.9 |
| 20260509160433 | 66 | 159 | 1.0 | 4.0 | 0.00 | 0.00 | 0.00 | 62 | 1004.0 |
| 20260509155533 | 65 | 174 | 1.0 | 4.0 | 0.00 | 0.00 | 0.00 | 62 | 1004.0 |
| 20260509154633 | 65 | 171 | 1.0 | 4.0 | 0.00 | 0.00 | 0.00 | 64 | 1004.0 |
| 20260509153733 | 64 | 219 | 1.0 | 4.0 | 0.00 | 0.00 | 0.00 | 64 | 1004.0 |
| 20260509152833 | 64 | 164 | 1.0 | 4.0 | 0.00 | 0.00 | 0.00 | 67 | 1004.1 |
| 20260509151933 | 63 | 161 | 1.0 | 3.0 | 0.00 | 0.00 | 0.00 | 67 | 1004.1 |
| 20260509151032 | 63 | 205 | 1.0 | 7.0 | 0.00 | 0.00 | 0.00 | 66 | 1004.2 |
| 20260509150133 | 63 | 195 | 1.0 | 7.0 | 0.00 | 0.00 | 0.00 | 67 | 1004.1 |
| 20260509145233 | 62 | 202 | 1.0 | 3.0 | 0.00 | 0.00 | 0.00 | 68 | 1004.0 |
| 20260509143433 | 62 | 224 | 1.0 | 5.0 | 0.00 | 0.00 | 0.00 | 70 | 1004.2 |
| 20260509142532 | 61 | 160 | 1.0 | 3.0 | 0.00 | 0.00 | 0.00 | 70 | 1003.9 |
| 20260509141632 | 60 | 194 | 1.0 | 3.0 | 0.00 | 0.00 | 0.00 | 70 | 1003.9 |
| 20260509140733 | 60 | 202 | 1.0 | 4.0 | 0.00 | 0.00 | 0.00 | 71 | 1004.1 |
| 20260509135832 | 59 | 185 | 2.0 | 4.0 | 0.00 | 0.00 | 0.00 | 70 | 1004.0 |
| 20260509134932 | 58 | 192 | 1.0 | 3.0 | 0.00 | 0.00 | 0.00 | 68 | 1003.8 |
| 20260509134032 | 57 | 217 | 1.0 | 3.0 | 0.00 | 0.00 | 0.00 | 64 | 1003.8 |
| 20260509133138 | 57 | 189 | 1.0 | 4.0 | 0.00 | 0.00 | 0.00 | 57 | 1003.8 |
| 20260509131333 | 56 | 196 | 1.0 | 4.0 | 0.00 | 0.00 | 0.00 | 41 | 1004.0 |
| 20260509125532 | 54 | 198 | 1.0 | 2.0 | 0.00 | 0.00 | 0.00 | 36 | 1003.8 |
| 20260509124633 | 54 | 197 | 1.0 | 3.0 | 0.00 | 0.00 | 0.00 | 36 | 1003.9 |
| 20260509123733 | 53 | 209 | 1.0 | 4.0 | 0.00 | 0.00 | 0.00 | 35 | 1003.7 |
| 20260509122834 | 53 | 179 | 1.0 | 2.0 | 0.00 | 0.00 | 0.00 | 35 | 1003.7 |
| 20260509121032 | 53 | 188 | 1.0 | 3.0 | 0.00 | 0.00 | 0.00 | 36 | 1003.7 |
| 20260509120133 | 52 | 191 | 1.0 | 3.0 | 0.00 | 0.00 | 0.00 | 37 | 1003.8 |
| 20260509115232 | 52 | 226 | 1.0 | 2.0 | 0.00 | 0.00 | 0.00 | 37 | 1003.7 |
| 20260509114332 | 52 | 184 | 1.0 | 3.0 | 0.00 | 0.00 | 0.00 | 38 | 1003.6 |
| 20260509113432 | 52 | 162 | 1.0 | 3.0 | 0.00 | 0.00 | 0.00 | 38 | 1003.5 |
| 20260509112532 | 52 | 133 | 1.0 | 2.0 | 0.00 | 0.00 | 0.00 | 39 | 1003.3 |
| 20260509111632 | 52 | 14 | 1.0 | 3.0 | 0.00 | 0.00 | 0.00 | 39 | 1003.4 |
| 20260509110740 | 52 | 209 | 1.0 | 2.0 | 0.00 | 0.00 | 0.00 | 40 | 1003.5 |
| 20260509105213 | 52 | 200 | 1.0 | 1.0 | 0.00 | 0.00 | 0.00 | 41 | 1003.3 |
| 20260509105012 | 52 | 199 | 1.0 | 1.0 | 0.00 | 0.00 | 0.00 | 41 | 1003.3 |
| 20260509104313 | 52 | 193 | 1.0 | 2.0 | 0.00 | 0.00 | 0.00 | 42 | 1003.2 |
| 20260509103413 | 52 | 232 | 1.0 | 1.0 | 0.00 | 0.00 | 0.00 | 43 | 1003.2 |
| 20260509103213 | 52 | 238 | 1.0 | 1.0 | 0.00 | 0.00 | 0.00 | 43 | 1003.2 |
| 20260509102513 | 52 | 242 | 0.0 | 1.0 | 0.00 | 0.00 | 0.00 | 44 | 1003.2 |
| 20260509101613 | 52 | 264 | 1.0 | 1.0 | 0.00 | 0.00 | 0.00 | 45 | 1003.1 |
| 20260509101412 | 52 | 244 | 1.0 | 2.0 | 0.00 | 0.00 | 0.00 | 45 | 1003.2 |
| 20260509100713 | 52 | 181 | 0.0 | 1.0 | 0.00 | 0.00 | 0.00 | 45 | 1003.3 |
| 20260509100512 | 52 | 181 | 0.0 | 1.0 | 0.00 | 0.00 | 0.00 | 46 | 1003.3 |
| 20260509095813 | 52 | 181 | 0.0 | 1.0 | 0.00 | 0.00 | 0.00 | 46 | 1003.4 |
| 20260509095612 | 52 | 181 | 0.0 | 1.0 | 0.00 | 0.00 | 0.00 | 47 | 1003.4 |
| 20260509094712 | 52 | 181 | 0.0 | 1.0 | 0.00 | 0.00 | 0.00 | 47 | 1003.5 |
| 20260509093813 | 52 | 181 | 0.0 | 1.0 | 0.00 | 0.00 | 0.00 | 48 | 1003.5 |
| 20260509093113 | 52 | 181 | 1.0 | 1.0 | 0.00 | 0.00 | 0.00 | 49 | 1003.5 |
| 20260509092913 | 52 | 181 | 1.0 | 1.0 | 0.00 | 0.00 | 0.00 | 49 | 1003.5 |
| 20260509092213 | 52 | 183 | 1.0 | 1.0 | 0.00 | 0.00 | 0.00 | 50 | 1003.7 |
| 20260509092012 | 52 | 186 | 1.0 | 1.0 | 0.00 | 0.00 | 0.00 | 50 | 1003.8 |
| 20260509091313 | 52 | 209 | 0.0 | 1.0 | 0.00 | 0.00 | 0.00 | 51 | 1003.8 |
| 20260509091112 | 52 | 213 | 0.0 | 1.0 | 0.00 | 0.00 | 0.00 | 51 | 1003.7 |
| 20260509090413 | 52 | 213 | 1.0 | 1.0 | 0.00 | 0.00 | 0.00 | 52 | 1003.7 |
| 20260509090212 | 52 | 213 | 1.0 | 1.0 | 0.00 | 0.00 | 0.00 | 52 | 1003.8 |
| 20260509085513 | 51 | 212 | 0.0 | 1.0 | 0.00 | 0.00 | 0.00 | 54 | 1003.9 |
| 20260509085313 | 51 | 213 | 0.0 | 1.0 | 0.00 | 0.00 | 0.00 | 54 | 1003.9 |
| 20260509084613 | 51 | 213 | 0.0 | 1.0 | 0.00 | 0.00 | 0.00 | 55 | 1003.9 |
| 20260509084412 | 51 | 212 | 0.0 | 1.0 | 0.00 | 0.00 | 0.00 | 55 | 1003.9 |
| 20260509083713 | 51 | 0 | 0.0 | 0.0 | 0.00 | 0.00 | 0.00 | 56 | 1003.9 |
| 20260509083512 | 51 | 220 | 0.0 | 1.0 | 0.00 | 0.00 | 0.00 | 56 | 1004.0 |
| 20260509082813 | 51 | 0 | 0.0 | 0.0 | 0.00 | 0.00 | 0.00 | 57 | 1004.0 |
| 20260509082613 | 51 | 220 | 0.0 | 1.0 | 0.00 | 0.00 | 0.00 | 57 | 1004.0 |
| 20260509081712 | 51 | 220 | 0.0 | 1.0 | 0.00 | 0.00 | 0.00 | 58 | 1004.0 |
| 20260509081013 | 51 | 0 | 0.0 | 0.0 | 0.00 | 0.00 | 0.00 | 59 | 1004.1 |
| 20260509080812 | 51 | 0 | 0.0 | 0.0 | 0.00 | 0.00 | 0.00 | 59 | 1004.0 |
| 20260509080113 | 51 | 220 | 0.0 | 1.0 | 0.00 | 0.00 | 0.00 | 60 | 1003.9 |
| 20260509075912 | 51 | 220 | 0.0 | 1.0 | 0.00 | 0.00 | 0.00 | 60 | 1003.9 |